Wind_Speed
27 27 29 30 30 31 31 33 42 46 48 52 52 51 50 47 47 48 48 46 42 39 38 41 39 36 33 24 30 22 6 8 12 20 9 6 3 4 5 14 19 23 23 25 25
32 32 32 33 35 37 36 36 36 45 49 51 54 55 53 51 50 50 51 49 48 43 42 42 44 42 38 28 27 28 8 9 4 7 8 8 4 2 3 10 14 19 20 22 23
30 33 36 38 39 39 40 41 40 40 49 52 54 58 57 56 52 52 53 51 49 47 46 45 46 48 41 34 32 29 28 8 15 19 5 15 10 3 4 9 11 15 19 18 20
25 31 36 38 40 43 45 46 46 45 44 52 55 58 62 60 58 57 55 56 53 51 50 50 48 49 45 38 37 33 26 17 7 12 5 8 11 8 3 4 11 10 15 15 18
23 27 32 38 42 47 50 52 52 51 51 49 56 57 60 64 63 62 60 58 57 56 54 53 52 49 50 40 40 37 30 24 18 15 12 11 9 8 7 3 7 7 12 12 16
27 31 32 33 35 45 51 56 58 58 56 57 53 59 61 62 64 67 65 63 61 59 59 58 56 54 53 47 43 38 35 25 20 22 21 16 15 13 8 6 7 7 8 10 12
28 31 33 34 35 35 43 53 61 65 64 61 60 57 63 63 63 71 66 67 65 63 60 60 59 57 56 53 48 45 43 41 28 27 25 20 20 16 10 10 11 9 7 8 10
34 36 34 34 35 34 33 32 54 65 71 68 64 63 59 65 65 69 67 70 69 67 65 64 61 59 57 57 52 49 49 43 41 41 33 25 24 20 15 13 14 12 8 7 9
36 33 31 31 34 35 35 31 32 55 69 72 70 68 66 65 66 70 70 73 73 72 69 68 64 64 62 60 58 54 55 49 42 43 39 32 29 22 21 18 17 14 13 9 10
39 37 35 31 35 35 35 33 25 35 53 69 75 74 72 70 68 71 72 73 75 75 73 71 70 66 65 64 62 60 59 58 50 48 42 39 33 25 27 22 20 17 17 16 13
40 38 39 36 38 35 34 32 29 20 33 58 71 78 78 76 75 72 73 74 75 78 76 77 71 68 68 69 68 67 65 62 57 52 48 41 37 30 30 27 24 21 21 20 17
36 37 38 39 35 34 34 34 33 26 21 36 60 76 83 82 79 79 76 74 75 76 80 79 75 76 74 73 72 69 66 63 59 55 53 43 41 36 32 32 27 26 26 23 22
34 37 40 40 37 36 34 31 31 33 25 20 38 63 80 86 84 82 82 78 76 77 79 80 81 80 79 78 75 71 67 67 63 61 56 51 47 44 39 34 33 28 22 22 22
37 37 41 42 43 40 36 33 30 32 28 25 25 39 68 83 87 86 86 85 81 78 78 79 83 82 81 81 80 75 73 70 65 63 57 56 50 51 43 37 26 22 19 22 29
37 37 47 41 44 42 37 34 30 29 27 25 28 40 52 74 83 89 90 89 87 84 81 78 82 84 83 83 84 81 80 75 70 66 64 62 55 51 47 41 43 35 23 33 32
36 41 43 42 47 42 38 34 34 32 29 28 30 33 48 59 75 87 92 94 92 90 87 85 83 83 83 86 85 86 84 78 74 70 68 66 56 53 50 49 48 39 31 32 23
38 41 39 40 48 43 37 35 35 36 33 31 35 33 46 57 63 80 92 96 97 95 93 91 87 84 84 84 84 87 83 81 79 76 70 66 60 55 55 51 50 40 41 38 34
37 39 39 39 47 43 38 37 40 38 35 35 34 40 42 53 60 66 81 94 99 102 100 97 95 91 86 82 81 83 83 82 81 78 73 73 68 63 60 54 47 46 43 39 33
37 40 44 43 45 46 42 42 41 41 39 36 37 39 43 48 52 65 72 84 101 104 102 100 96 97 93 87 86 81 81 82 82 80 76 74 73 70 64 58 58 56 50 39 35
44 43 41 47 43 49 47 45 38 41 44 42 41 38 42 43 45 65 76 85 88 98 99 103 101 99 94 89 85 83 78 82 81 77 74 73 76 71 67 66 67 61 56 43 41
40 44 46 51 46 49 50 52 38 45 44 43 45 39 42 35 42 59 79 84 86 87 100 107 105 104 100 95 89 85 82 80 78 76 73 72 75 71 70 69 66 60 52 45 47
41 45 49 49 52 52 59 51 45 49 47 45 47 44 40 31 41 52 69 76 82 88 96 103 103 106 102 101 96 94 88 84 79 72 68 74 77 72 67 65 66 61 53 50 50
52 54 55 59 58 59 59 49 52 54 49 53 48 46 37 32 39 52 62 66 81 88 91 93 99 103 105 103 103 101 96 90 84 77 69 71 72 70 65 64 62 64 57 53 58
52 57 60 61 61 61 56 55 54 60 50 57 49 46 34 32 35 49 49 57 70 85 92 91 95 100 106 111 108 104 100 93 85 75 72 72 70 66 64 64 63 62 53 52 57
54 54 58 59 62 58 57 61 59 53 60 53 51 40 35 32 35 41 44 50 60 78 92 92 93 98 107 110 107 105 102 97 89 81 74 73 69 66 66 66 64 61 54 55 65
52 57 60 57 59 58 62 61 58 58 56 56 48 37 33 32 38 42 47 53 69 71 83 90 94 97 102 103 101 101 100 97 90 85 80 79 79 69 69 62 57 61 60 60 61
55 59 58 61 60 62 60 57 61 57 57 51 41 35 32 35 40 43 48 54 63 74 82 83 93 96 96 100 103 101 97 99 96 92 86 90 90 71 63 59 58 61 62 64 64
Wind_Direction
265 260 253 247 243 238 236 235 229 225 226 225 225 224 223 220 210 212 214 214 214 211 212 212 211 222 222 215 201 209 7 259 199 216 229 251 249 329 351 26 20 18 15 28 24
265 262 257 253 248 242 240 235 233 230 226 225 223 224 223 223 219 211 214 214 216 215 214 215 218 224 226 219 223 226 175 193 223 240 238 244 217 191 351 25 26 21 8 24 27
268 263 258 255 251 248 246 242 238 234 229 226 224 221 223 223 223 220 213 213 215 212 213 208 219 225 225 220 223 220 198 249 263 258 230 250 250 228 276 36 20 24 360 19 26
267 262 257 254 252 246 245 242 239 237 234 229 226 222 221 221 222 222 219 213 213 210 209 214 217 225 231 221 227 223 213 213 255 209 180 263 244 221 251 359 8 22 360 11 21
291 278 265 254 250 248 242 238 237 234 233 232 227 225 222 221 220 223 223 217 210 214 211 212 216 222 229 225 231 230 211 221 217 233 202 233 242 234 251 281 351 3 359 355 13
307 295 284 272 264 255 248 241 236 234 229 229 228 225 225 223 220 222 223 223 216 211 218 211 214 221 225 230 231 229 212 205 220 227 227 231 233 254 253 261 298 330 345 341 356
307 304 295 292 281 271 259 248 241 235 230 227 227 225 224 223 223 225 220 223 222 215 214 216 213 218 222 229 229 228 228 215 226 228 230 225 242 253 253 250 266 296 330 319 334
313 304 300 298 297 288 275 270 244 240 233 228 225 225 224 223 223 226 220 222 223 222 215 217 214 216 218 224 228 231 236 232 221 224 234 233 231 238 242 250 259 284 298 300 307
325 320 319 309 298 296 291 286 257 243 237 229 225 223 223 223 222 224 222 222 222 222 221 216 217 217 218 220 225 228 233 233 228 227 229 228 227 228 240 237 252 269 280 291 282
324 328 321 315 310 305 298 293 281 246 240 232 226 222 222 222 221 222 222 223 223 222 222 222 219 220 221 220 221 223 228 233 230 230 226 225 227 234 237 241 248 262 271 280 280
319 323 325 317 317 314 307 302 298 290 236 232 226 222 221 221 221 222 222 222 223 224 223 224 224 222 221 220 223 223 226 229 232 232 233 222 228 233 234 240 245 251 261 273 275
320 318 320 324 318 314 313 307 302 301 292 233 222 219 218 219 220 220 222 221 221 223 224 224 223 224 222 221 222 224 227 228 229 230 232 224 228 231 231 241 242 250 255 258 270
316 318 318 320 319 311 315 312 304 300 309 268 230 222 219 218 219 219 221 222 221 222 223 224 222 222 223 223 223 224 227 230 231 232 234 225 225 232 229 233 243 239 248 252 259
319 320 324 320 317 315 308 305 309 298 299 301 245 230 224 219 218 219 221 221 221 221 223 222 224 223 223 224 226 224 225 228 228 231 231 230 228 230 231 229 228 199 232 255 265
317 323 327 320 318 319 310 305 302 306 294 280 278 246 228 222 221 219 220 220 221 222 221 222 224 224 223 223 226 226 227 227 227 229 230 232 230 227 231 216 217 223 236 256 254
322 324 321 320 321 319 317 305 307 299 293 275 276 269 243 229 224 221 221 219 220 221 221 221 223 223 224 223 224 226 227 228 229 230 231 232 232 232 229 221 225 227 232 231 257
318 322 320 319 324 324 316 312 309 304 292 272 263 274 256 242 231 226 223 221 220 220 220 221 222 223 224 224 223 226 227 228 230 231 233 238 236 232 231 227 226 219 221 234 246
318 319 323 321 327 323 320 312 311 304 302 279 270 277 260 249 238 231 228 223 222 219 220 220 220 221 223 224 225 225 227 227 228 229 230 233 232 232 231 233 231 234 231 232 239
317 319 325 322 318 324 321 315 312 305 302 292 283 284 269 252 237 231 230 226 223 221 220 220 220 223 221 221 223 224 226 226 228 228 227 231 231 229 230 229 231 233 231 225 237
310 312 321 322 319 320 324 317 311 310 307 300 295 290 277 258 240 229 226 225 223 222 221 220 221 221 223 226 224 224 224 226 227 226 227 230 232 229 228 229 232 226 227 215 220
314 313 319 319 320 320 322 319 313 314 310 302 304 300 291 263 238 229 223 223 221 219 221 219 219 220 220 220 224 227 224 225 227 226 224 227 232 233 234 230 232 234 231 218 222
314 318 318 320 321 321 324 317 315 317 313 308 310 304 295 262 236 227 225 218 219 218 220 220 219 221 220 220 220 221 223 224 225 224 223 226 227 228 229 233 232 235 230 227 223
314 309 315 318 320 321 321 319 318 318 313 312 310 303 292 263 242 234 222 217 215 216 219 218 217 220 219 219 219 219 222 221 222 221 221 225 228 230 230 229 230 230 228 225 218
310 311 313 318 317 320 319 318 319 316 313 312 307 303 287 266 245 242 224 219 216 214 217 217 215 217 218 219 217 219 221 221 222 222 221 224 224 225 227 226 220 230 220 224 223
313 316 314 317 316 318 317 317 317 314 312 310 307 300 280 262 246 239 234 216 217 217 218 215 215 215 217 218 217 218 220 221 219 219 223 227 226 220 223 223 222 227 224 219 221
312 313 316 314 314 316 317 317 316 314 312 309 305 291 274 259 244 230 228 214 213 213 219 215 216 216 218 217 216 216 219 222 221 219 218 224 228 222 222 223 221 223 222 220 222
312 316 312 314 316 316 318 317 317 317 313 306 300 286 268 252 246 236 226 217 214 213 214 211 215 217 218 215 213 214 214 217 218 219 217 221 225 219 218 221 221 223 222 224 223
Height
10908 10910 10911 10913 10915 10917 10920 10921 10923 10925 10930 10936 10942 10947 10955 10961 10969 10974 10978 10986 10990 10994 10998 11002 11004 11006 11013 11020 11021 11018 11021 11026 11029 11029 11029 11029 11030 11034 11038 11040 11040 11039 11037 11033 11031
10900 10901 10902 10904 10905 10907 10910 10913 10915 10918 10921 10925 10933 10939 10945 10953 10961 10967 10973 10978 10983 10988 10992 10996 11000 11002 11009 11016 11017 11020 11026 11028 11030 11030 11028 11030 11031 11034 11038 11041 11041 11041 11038 11036 11034
10887 10889 10891 10894 10895 10898 10901 10905 10908 10910 10913 10917 10922 10929 10936 10944 10952 10958 10965 10970 10976 10982 10985 10989 10994 10997 11004 11009 11013 11018 11023 11027 11028 11028 11027 11030 11031 11034 11037 11040 11041 11042 11040 11038 11037
10878 10877 10878 10878 10881 10883 10887 10891 10895 10900 10904 10907 10912 10918 10926 10934 10941 10947 10955 10963 10968 10974 10978 10982 10989 10992 10996 11003 11008 11014 11019 11021 11024 11025 11026 11029 11032 11035 11037 11040 11041 11042 11041 11040 11039
10872 10871 10869 10868 10868 10869 10871 10874 10878 10884 10890 10896 10901 10908 10915 10923 10931 10936 10943 10953 10961 10964 10970 10975 10981 10988 10990 10997 11001 11008 11013 11015 11018 11022 11025 11028 11032 11034 11036 11040 11041 11042 11042 11041 11041
10866 10863 10860 10859 10859 10857 10858 10860 10863 10867 10874 10880 10888 10896 10902 10911 10917 10921 10932 10941 10950 10957 10961 10968 10972 10980 10986 10991 10996 11002 11008 11010 11011 11017 11021 11026 11030 11033 11037 11039 11041 11041 11042 11042 11042
10859 10856 10852 10849 10847 10846 10846 10845 10848 10852 10857 10864 10873 10882 10889 10900 10904 10907 10921 10928 10938 10948 10954 10959 10965 10972 10980 10985 10989 10992 10996 11005 11009 11013 11017 11024 11027 11032 11035 11037 11039 11039 11041 11042 11043
10851 10847 10843 10840 10836 10834 10833 10832 10832 10833 10840 10849 10858 10867 10876 10882 10889 10896 10912 10916 10925 10935 10945 10951 10958 10964 10971 10977 10983 10987 10992 10997 11004 11008 11014 11021 11025 11027 11033 11035 11037 11038 11039 11042 11043
10842 10838 10833 10830 10825 10822 10820 10819 10816 10815 10821 10831 10841 10851 10861 10867 10875 10883 10894 10901 10911 10921 10931 10943 10950 10955 10962 10968 10975 10982 10982 10990 10997 11003 11010 11016 11021 11026 11028 11032 11034 11036 11038 11039 11042
10835 10830 10825 10820 10814 10810 10807 10805 10803 10801 10803 10812 10822 10833 10842 10852 10861 10866 10877 10887 10898 10907 10918 10928 10937 10946 10954 10962 10966 10971 10974 10983 10989 10995 11004 11011 11015 11021 11025 11029 11031 11034 11036 11037 11039
10828 10822 10817 10811 10805 10800 10797 10794 10791 10789 10788 10792 10802 10815 10824 10835 10843 10853 10861 10872 10882 10894 10905 10912 10926 10938 10941 10948 10953 10960 10967 10973 10981 10986 10994 11006 11008 11016 11021 11025 11028 11032 11034 11035 11037
10820 10815 10809 10804 10798 10792 10787 10784 10781 10779 10777 10776 10783 10794 10803 10815 10826 10836 10845 10855 10866 10878 10887 10900 10914 10918 10927 10935 10942 10950 10958 10965 10971 10981 10986 11000 11002 11009 11016 11021 11024 11028 11030 11032 11034
10811 10806 10800 10795 10790 10784 10779 10775 10772 10769 10767 10766 10769 10777 10786 10796 10807 10819 10829 10839 10851 10861 10871 10884 10891 10900 10912 10921 10930 10941 10949 10953 10965 10970 10980 10991 10998 11000 11010 11018 11020 11023 11026 11029 11029
10802 10796 10791 10785 10781 10776 10770 10766 10762 10759 10760 10758 10760 10764 10768 10777 10789 10803 10810 10822 10834 10845 10854 10867 10873 10887 10898 10908 10915 10930 10936 10942 10952 10959 10974 10979 10991 10992 11003 11011 11014 11018 11021 11024 11026
10793 10787 10781 10775 10770 10765 10760 10756 10752 10750 10752 10751 10748 10748 10754 10763 10771 10781 10792 10805 10817 10828 10839 10850 10857 10870 10884 10894 10901 10914 10919 10930 10939 10950 10959 10969 10980 10987 10995 11002 11005 11011 11016 11018 11021
10783 10776 10771 10764 10759 10754 10749 10745 10742 10740 10740 10741 10738 10736 10740 10746 10751 10763 10768 10783 10795 10808 10821 10831 10839 10852 10867 10875 10888 10894 10905 10920 10929 10940 10948 10957 10972 10981 10987 10992 10996 11006 11008 11010 11013
10772 10766 10760 10753 10747 10742 10737 10734 10730 10727 10727 10726 10725 10726 10723 10727 10734 10743 10750 10762 10775 10788 10802 10812 10826 10837 10845 10860 10872 10879 10895 10908 10916 10928 10945 10950 10962 10973 10976 10984 10989 10997 11000 11002 11007
10761 10754 10749 10743 10737 10730 10726 10722 10718 10715 10713 10709 10710 10707 10707 10706 10714 10723 10728 10741 10751 10763 10775 10790 10803 10816 10832 10847 10858 10869 10880 10893 10903 10918 10932 10934 10948 10958 10965 10974 10982 10986 10993 10996 11000
10750 10744 10738 10732 10725 10719 10714 10711 10706 10700 10696 10694 10692 10689 10684 10683 10692 10697 10706 10709 10722 10739 10762 10776 10792 10796 10809 10826 10835 10853 10867 10879 10887 10902 10914 10921 10931 10942 10953 10962 10970 10975 10980 10988 10991
10739 10733 10726 10720 10714 10708 10702 10697 10694 10687 10678 10676 10672 10668 10659 10661 10670 10672 10674 10680 10703 10727 10743 10753 10770 10785 10803 10817 10828 10839 10852 10859 10874 10889 10904 10912 10915 10927 10938 10947 10950 10961 10970 10979 10987
10728 10720 10715 10707 10701 10695 10690 10682 10680 10669 10666 10658 10653 10647 10637 10641 10643 10646 10642 10661 10684 10703 10710 10722 10742 10762 10778 10797 10816 10829 10838 10849 10858 10876 10891 10897 10900 10915 10926 10932 10939 10954 10967 10975 10979
10717 10709 10702 10694 10687 10681 10675 10667 10663 10656 10647 10642 10636 10629 10622 10622 10620 10620 10626 10649 10668 10676 10682 10707 10732 10742 10764 10776 10791 10801 10820 10832 10846 10864 10877 10880 10886 10896 10912 10924 10931 10941 10957 10966 10969
10702 10696 10689 10681 10674 10667 10659 10654 10645 10639 10632 10624 10619 10612 10607 10605 10603 10598 10611 10631 10641 10658 10668 10689 10712 10722 10740 10757 10768 10779 10798 10814 10828 10845 10863 10864 10878 10891 10902 10910 10917 10929 10942 10955 10961
10687 10682 10673 10667 10659 10653 10644 10637 10635 10617 10618 10606 10601 10595 10591 10588 10589 10583 10604 10616 10628 10639 10647 10667 10685 10697 10710 10718 10746 10765 10778 10802 10822 10841 10849 10853 10866 10877 10889 10896 10911 10912 10931 10943 10949
10673 10668 10663 10654 10644 10638 10629 10620 10613 10609 10595 10591 10582 10579 10573 10573 10574 10575 10587 10607 10614 10620 10626 10648 10665 10672 10683 10703 10735 10753 10770 10787 10809 10827 10839 10843 10854 10863 10868 10877 10895 10907 10918 10929 10930
10661 10655 10648 10640 10634 10624 10614 10602 10595 10590 10581 10570 10564 10561 10557 10558 10555 10560 10565 10577 10581 10598 10609 10632 10646 10655 10669 10696 10724 10741 10762 10780 10801 10815 10824 10826 10827 10851 10857 10873 10893 10899 10907 10916 10920
10649 10642 10633 10626 10618 10611 10601 10589 10577 10569 10561 10553 10546 10541 10540 10541 10541 10543 10549 10559 10570 10575 10584 10612 10627 10641 10659 10678 10697 10723 10746 10764 10783 10796 10810 10797 10797 10840 10859 10871 10882 10886 10895 10902 10909